Volver al catálogo

EXPLORER 31

ISIS-X

ActivoCienciaUNKNOWN
NORAD 1806·PAYLOAD·🇺🇸 United States

Lanzado Nov 29, 1965 desde Vandenberg Space Force Base

Loading…

Próximos Pases (próximas 24 horas)

TLE

ActualizadoSource: Space-Track

Época: Sep 14, 2026, 00:39 UTC

1 01806U 65098B   26257.02739471  .00000950  00000-0  33236-3 0  9992
2 01806  79.7720 276.5432 1422549 320.5086  30.0226 12.08393595659423

Sigue EXPLORER 31 en tiempo real con AllMySat

Download on the App Store